This is the latest recevied weather packets stored in our database for station/object LX0APE-4. If no packets are shown the sender has not sent any weather packets the latest 10 day(s).
| Time | Temp. | Humidity | Pressure | Rain* | Wind** | Luminosity | Snow |
|---|---|---|---|---|---|---|---|
| 1777825317 | 16.67° C | 66% | 5010.3 hPa | 0 mm | - | - | - |
| 1777825017 | 17.22° C | 66% | 5010.4 hPa | 0 mm | - | - | - |
| 1777824717 | 17.22° C | 65% | 5010.4 hPa | 0 mm | - | - | - |
| 1777824417 | 17.22° C | 68% | 5010.4 hPa | 0 mm | - | - | - |
| 1777824117 | 17.22° C | 68% | 5010.5 hPa | 0 mm | - | - | - |
| 1777823817 | 17.22° C | 67% | 5010.8 hPa | 0 mm | - | - | - |
| 1777823517 | 17.22° C | 69% | 5010.6 hPa | 0 mm | - | - | - |
| 1777823217 | 16.67° C | 71% | 5010.7 hPa | 0 mm | - | - | - |
| 1777822917 | 16.11° C | 73% | 5010.8 hPa | 0 mm | - | - | - |
| 1777822617 | 15.56° C | 74% | 5010.9 hPa | 0 mm | - | - | - |
| 1777822317 | 15° C | 74% | 5010.8 hPa | 0 mm | - | - | - |
| 1777822017 | 14.44° C | 75% | 5010.7 hPa | 0 mm | - | - | - |
| 1777821717 | 13.89° C | 75% | 5010.7 hPa | 0 mm | - | - | - |
| 1777821417 | 13.89° C | 75% | 5011 hPa | 0 mm | - | - | - |
| 1777821117 | 13.89° C | 74% | 5011.1 hPa | 0 mm | - | - | - |
| 1777820817 | 13.89° C | 74% | 5011.1 hPa | 0 mm | - | - | - |
| 1777820517 | 13.89° C | 74% | 5011.1 hPa | 0 mm | - | - | - |
| 1777820217 | 13.89° C | 73% | 5011.2 hPa | 0 mm | - | - | - |
| 1777819917 | 14.44° C | 71% | 5011.2 hPa | 0 mm | - | - | - |
| 1777819617 | 14.44° C | 71% | 5011.1 hPa | 0 mm | - | - | - |
| 1777819317 | 14.44° C | 71% | 5011.1 hPa | 0 mm | - | - | - |
| 1777819017 | 14.44° C | 71% | 5011.2 hPa | 0 mm | - | - | - |
| 1777818717 | 14.44° C | 69% | 5011.2 hPa | 0 mm | - | - | - |
| 1777818417 | 15° C | 68% | 5011 hPa | 0 mm | - | - | - |
| 1777818124 | 15° C | 69% | 5011.1 hPa | 0 mm | - | - | - |
* Rain latest hour (hover to see other rain measurements)
** Current wind speed in m/s (hover to see current wind gust speed)